Change the Weather History Date:

Saturday, October 19, 2013

  Actual Average Record
Temperature  
Mean Temperature 46 °F 48 °F  
Max Temperature 63 °F 62 °F 87 °F (1947)
Min Temperature 28 °F 35 °F 10 °F (1972)
Degree Days  
Heating Degree Days 19 17  
Month to date heating degree days 266 258  
Cooling Degree Days 0 0  
Month to date cooling degree days 0 2  
Year to date cooling degree days 814 764  
Moisture  
Dew Point 31 °F    
Average Humidity 61    
Maximum Humidity 92    
Minimum Humidity 30    
Precipitation  
Precipitation 0.00 in 0.06 in 1.77 in (1908)
Sea Level Pressure  
Sea Level Pressure 29.91 in    
Wind  
Wind Speed 7 mph (WNW)    
Max Wind Speed 20 mph    
Max Gust Speed 34 mph    
Visibility 10 miles    
Events      
T = Trace of Precipitation, MM = Missing Value Source: NWS Daily Summary

Daily Weather History Graph

Daily Weather History Graph

Search for Another Location

Airport or City:

Trip Planner

Search our weather history database for the weather conditions in past years. The results will help you decide how hot, cold, wet, or windy it might be!

Date:

Astronomy

Oct. 19, 2013 Rise Set
Actual Time 7:55 AM CDT 6:50 PM CDT
Civil Twilight 7:27 AM CDT 7:19 PM CDT
Nautical Twilight 6:54 AM CDT 7:51 PM CDT
Astronomical Twilight 6:22 AM CDT 8:23 PM CDT
Moon 7:18 PM CDT (10/19) 8:35 AM CDT (10/19)
Length of Visible Light 11h 51m
Length of Day
10h 55m
Waxing Gibbous, 99% of the Moon is Illuminated
Oct 19
Waxing Gibbous
Oct 26
Last Quarter
Nov 3
New
Nov 9
First Quarter
Nov 17
Full

Hourly Weather History & Observations

Time (CDT) Temp. Windchill Dew Point Humidity Pressure Visibility Wind Dir Wind Speed Gust Speed Precip Events Conditions
12:53 AM 36.0 °F 31.1 °F 28.0 °F 73% 30.04 in 10.0 mi West 5.8 mph - N/A   Clear
1:53 AM 35.1 °F 29.3 °F 28.0 °F 76% 30.03 in 10.0 mi West 6.9 mph - N/A   Clear
2:53 AM 34.0 °F 27.2 °F 28.0 °F 79% 30.01 in 10.0 mi West 8.1 mph - N/A   Clear
3:53 AM 30.0 °F 24.1 °F 27.0 °F 88% 30.00 in 10.0 mi West 5.8 mph - N/A   Clear
4:53 AM 32.0 °F 24.8 °F 27.0 °F 82% 29.99 in 10.0 mi WSW 8.1 mph 34.5 mph N/A   Clear
5:53 AM 30.9 °F 26.2 °F 27.0 °F 85% 29.98 in 10.0 mi WSW 4.6 mph - N/A   Partly Cloudy
6:53 AM 28.9 °F 22.8 °F 26.1 °F 89% 29.97 in 10.0 mi WSW 5.8 mph - N/A   Scattered Clouds
7:53 AM 34.0 °F 27.2 °F 28.0 °F 79% 29.95 in 10.0 mi West 8.1 mph - N/A   Overcast
8:53 AM 36.0 °F 28.5 °F 30.0 °F 79% 29.95 in 10.0 mi WSW 10.4 mph - N/A   Mostly Cloudy
9:53 AM 45.0 °F 39.7 °F 32.0 °F 60% 29.94 in 10.0 mi West 10.4 mph - N/A   Overcast
10:53 AM 50.0 °F - 30.9 °F 48% 29.94 in 10.0 mi WNW 15.0 mph 19.6 mph N/A   Overcast
11:53 AM 55.0 °F - 32.0 °F 42% 29.93 in 10.0 mi WNW 11.5 mph - N/A   Clear
12:53 PM 57.9 °F - 32.0 °F 37% 29.90 in 10.0 mi WNW 12.7 mph 21.9 mph N/A   Clear
1:53 PM 61.0 °F - 30.9 °F 32% 29.88 in 10.0 mi NW 19.6 mph 25.3 mph N/A   Clear
2:53 PM 62.1 °F - 30.9 °F 31% 29.86 in 10.0 mi NW 19.6 mph 26.5 mph N/A   Clear
3:53 PM 63.0 °F - 32.0 °F 31% 29.85 in 10.0 mi NW 15.0 mph - N/A   Clear
4:53 PM 63.0 °F - 32.0 °F 31% 29.84 in 10.0 mi NW 12.7 mph - N/A   Clear
5:53 PM 62.1 °F - 33.1 °F 34% 29.83 in 10.0 mi NNW 4.6 mph - N/A   Clear
6:53 PM 54.0 °F - 34.0 °F 47% 29.84 in 10.0 mi Calm Calm - N/A   Clear
7:53 PM 43.0 °F - 36.0 °F 76% 29.86 in 10.0 mi Calm Calm - N/A   Clear
8:53 PM 37.9 °F - 35.1 °F 89% 29.86 in 10.0 mi Calm Calm - N/A   Clear
9:53 PM 36.0 °F - 33.1 °F 89% 29.85 in 10.0 mi Calm Calm - N/A   Clear
10:53 PM 36.0 °F - 33.1 °F 89% 29.83 in 10.0 mi Calm Calm - N/A   Clear
11:53 PM 37.0 °F - 34.0 °F 89% 29.81 in 10.0 mi Calm Calm - N/A   Clear